Temp
12 12 11 11 11 11 11 12 12 12 12 13 13 12 12 12 12 12 12 11 11 11 12 12 12 13 13 13 14 14 10 11 13 14 13 15 14 15 15 15 15 14 14 13 14
12 11 11 11 11 11 11 11 12 12 12 12 12 12 12 11 11 12 10 11 11 11 12 12 12 13 14 14 14 13 9 12 14 13 11 13 13 14 14 14 14 15 15 15 14
11 11 11 11 11 11 11 11 11 12 12 12 12 12 11 11 11 10 10 10 11 11 11 11 12 13 14 13 13 12 11 13 13 13 13 12 13 13 13 12 12 12 13 13 12
11 11 11 11 11 11 11 11 11 11 11 11 11 11 11 11 11 9 10 10 10 11 11 11 12 13 13 12 13 11 13 13 13 12 12 11 12 12 13 13 12 12 12 12 11
10 11 11 11 11 11 11 11 11 11 12 11 11 11 10 10 9 9 9 10 10 11 11 11 11 12 11 12 12 11 11 12 13 13 12 12 11 11 12 13 12 12 12 11 11
10 11 11 10 11 11 10 11 11 11 11 11 11 11 10 9 9 9 9 10 10 10 10 11 10 11 11 12 10 10 11 11 12 12 13 11 11 11 12 12 12 12 12 11 10
10 10 10 10 10 10 10 10 10 11 11 11 11 10 10 8 8 8 9 9 10 9 9 10 10 10 11 11 10 11 9 9 11 12 11 11 10 10 12 11 12 12 11 10 9
10 10 10 10 10 10 10 10 10 10 10 10 10 10 8 7 8 8 8 8 9 9 9 9 10 10 10 10 10 10 9 8 11 11 11 11 8 10 11 12 11 11 10 9 8
10 10 10 10 10 10 10 10 10 10 9 10 9 9 7 7 7 8 8 8 8 9 9 9 10 9 9 7 6 7 8 10 11 12 10 10 8 10 11 11 11 10 9 8 7
10 9 9 10 9 9 9 9 9 9 9 9 8 8 7 7 7 7 8 8 8 8 9 9 9 5 4 5 7 8 8 8 8 10 10 9 7 8 11 11 10 10 8 7 6
9 9 9 9 9 9 9 9 8 8 7 6 7 7 7 7 7 7 7 8 8 8 7 8 5 6 6 8 8 8 7 6 6 8 8 7 6 6 9 10 8 9 7 6 5
9 9 9 9 9 9 8 8 8 8 6 6 6 6 6 6 7 7 7 7 8 7 8 5 6 7 8 8 7 7 6 5 6 8 8 7 7 8 8 9 9 7 5 5 5
8 8 8 8 8 8 8 8 8 8 7 5 6 6 6 7 7 6 7 7 8 8 8 6 7 8 8 7 7 7 7 5 6 6 6 5 4 7 9 6 6 5 5 4 4
8 8 8 8 7 8 8 8 7 8 3 5 5 5 6 6 6 6 6 7 7 7 7 7 7 7 6 7 7 6 6 6 6 4 3 5 1 5 7 5 4 5 5 4 4
8 7 7 7 7 7 8 8 7 7 4 6 5 5 5 6 6 5 6 7 6 7 6 7 6 6 6 7 8 6 6 6 6 5 3 4 1 3 7 7 5 4 4 4 4
7 7 7 6 7 7 7 7 7 2 5 3 5 5 5 6 6 5 6 6 6 6 7 6 7 6 6 7 7 6 6 4 5 3 -3 3 4 3 5 6 5 4 4 4 3
6 6 6 6 6 7 7 7 1 2 4 2 3 4 5 5 5 5 5 5 4 3 5 6 6 6 6 6 6 5 3 -3 -1 -2 -1 4 4 4 6 5 5 4 4 3 3
4 5 6 6 6 6 6 1 2 1 1 3 4 4 4 5 5 5 5 3 4 5 3 4 3 6 6 6 5 5 3 -2 -2 -1 1 5 2 5 5 5 6 6 4 3 3
2 3 4 4 5 5 6 -2 2 2 2 3 3 1 2 4 4 4 4 4 3 5 3 3 5 5 5 5 5 4 2 4 -3 -5 -3 1 3 5 4 4 5 4 4 3 3
2 1 3 4 4 4 -0 2 2 4 3 4 3 0 -1 -1 3 3 3 3 3 3 4 3 2 4 4 4 4 4 4 0 -3 -4 -4 0 3 3 4 4 2 3 4 3 3
0 2 2 2 2 3 -2 -1 3 4 5 3 1 -0 1 -1 1 1 3 3 3 2 3 4 2 3 4 3 2 -0 -1 0 1 0 -3 -3 2 4 3 2 1 2 3 4 3
0 -1 1 1 1 -0 -3 0 3 2 3 3 4 2 1 -0 -1 2 3 3 3 2 1 2 0 -1 2 2 2 2 2 1 -2 -1 -1 -2 2 4 3 2 2 3 3 3 4
-1 -3 -1 -0 -2 -4 -2 1 2 1 1 2 3 2 1 -1 0 -0 1 1 2 2 0 0 -3 -7 -2 0 1 2 2 1 -5 -6 -2 -5 0 2 3 1 2 1 2 2 2
1 -3 -3 -2 -1 -1 -1 -0 -0 1 1 2 0 1 -1 -3 -3 -3 -0 -0 1 1 2 2 -4 -4 -2 1 -1 1 1 0 -6 -10 -4 -1 -1 0 1 -3 -1 0 0 0 0
2 -2 -1 -3 -2 -2 1 -1 -0 -1 1 1 0 1 -0 -4 -5 -4 -3 -2 -1 0 -1 -3 -5 -6 -6 -3 -1 -1 -1 -2 -5 -4 -5 -1 -4 -3 -3 -4 -1 -0 -0 -0 -0
1 -2 -2 -2 1 -1 -0 -2 -0 -1 -1 -0 -1 0 -2 -3 -1 -3 -5 -5 -2 -3 -5 -5 -6 -6 -8 -3 -3 -4 -2 -3 -2 -3 -5 -4 -4 -1 -0 -1 -1 -0 -1 -2 -2
0 2 3 -1 -2 -1 -1 -1 0 -0 -1 1 -0 -2 -1 -1 -0 -0 -0 -0 -1 -5 -8 -8 -8 -10 -8 -5 -7 -7 -4 -2 -5 -7 -8 -8 -6 -4 -6 -4 -3 -3 -2 -2 -2
Height
1538 1537 1537 1536 1536 1536 1536 1535 1535 1535 1535 1535 1535 1534 1533 1534 1534 1534 1534 1536 1536 1536 1536 1535 1534 1535 1535 1536 1536 1536 1545 1550 1546 1544 1548 1544 1544 1543 1542 1541 1542 1542 1541 1542 1539
1538 1538 1537 1536 1537 1537 1536 1536 1536 1536 1536 1536 1535 1534 1534 1535 1537 1535 1537 1537 1537 1537 1536 1536 1535 1535 1536 1538 1539 1538 1549 1546 1544 1545 1547 1544 1544 1545 1544 1543 1542 1540 1538 1536 1535
1537 1537 1538 1537 1536 1536 1536 1536 1536 1536 1536 1535 1536 1535 1536 1535 1536 1539 1539 1539 1538 1538 1537 1537 1537 1537 1538 1539 1541 1542 1546 1543 1545 1543 1544 1546 1546 1546 1545 1543 1543 1542 1540 1538 1536
1537 1537 1537 1537 1537 1537 1537 1537 1536 1536 1535 1535 1536 1538 1538 1536 1541 1539 1540 1540 1540 1539 1538 1538 1538 1538 1538 1540 1543 1545 1544 1543 1544 1546 1547 1547 1545 1545 1544 1543 1541 1540 1539 1539 1537
1536 1536 1537 1537 1537 1538 1537 1537 1536 1536 1536 1536 1537 1537 1538 1538 1540 1540 1540 1541 1541 1540 1540 1539 1538 1539 1541 1541 1542 1543 1544 1545 1544 1544 1545 1545 1544 1544 1541 1541 1540 1539 1538 1538 1537
1537 1536 1536 1537 1536 1536 1536 1537 1536 1536 1536 1536 1538 1538 1539 1541 1541 1541 1541 1541 1541 1541 1541 1541 1541 1541 1541 1542 1544 1544 1542 1541 1541 1541 1542 1542 1543 1544 1539 1538 1538 1538 1538 1537 1535
1536 1535 1535 1536 1536 1536 1536 1537 1537 1536 1536 1537 1537 1538 1540 1543 1541 1542 1542 1541 1541 1541 1542 1543 1543 1544 1544 1544 1544 1543 1543 1539 1537 1538 1542 1542 1541 1541 1537 1537 1537 1538 1537 1535 1534
1535 1535 1535 1535 1536 1536 1536 1536 1537 1537 1537 1537 1537 1538 1539 1543 1542 1542 1543 1543 1541 1541 1543 1545 1544 1545 1545 1546 1545 1546 1546 1550 1539 1538 1542 1543 1548 1537 1537 1537 1536 1536 1535 1534 1533
1534 1535 1535 1535 1535 1535 1536 1536 1537 1537 1538 1537 1539 1538 1542 1544 1544 1543 1543 1543 1544 1544 1543 1544 1546 1546 1547 1550 1554 1550 1555 1548 1544 1541 1542 1544 1543 1537 1536 1536 1535 1535 1534 1532 1532
1533 1533 1533 1534 1535 1535 1535 1536 1537 1538 1538 1538 1539 1544 1544 1544 1544 1545 1544 1544 1543 1544 1546 1546 1547 1551 1551 1557 1561 1554 1554 1553 1551 1545 1543 1543 1541 1536 1534 1534 1533 1533 1532 1530 1529
1531 1531 1532 1533 1534 1534 1536 1537 1541 1540 1539 1540 1541 1542 1545 1545 1546 1546 1547 1547 1546 1546 1548 1548 1554 1559 1556 1552 1556 1554 1554 1557 1551 1543 1543 1543 1543 1536 1528 1530 1529 1532 1532 1530 1530
1529 1529 1530 1531 1532 1534 1535 1535 1537 1538 1540 1542 1541 1541 1545 1546 1546 1547 1549 1550 1548 1549 1549 1554 1556 1554 1554 1554 1553 1557 1557 1558 1548 1543 1544 1540 1538 1530 1526 1525 1524 1530 1531 1531 1532
1527 1528 1529 1530 1532 1533 1534 1534 1536 1537 1540 1545 1544 1542 1544 1546 1547 1548 1550 1549 1549 1549 1550 1556 1557 1553 1553 1556 1554 1557 1558 1559 1558 1550 1546 1544 1543 1532 1527 1529 1530 1531 1531 1531 1531
1524 1526 1527 1529 1534 1530 1533 1533 1535 1537 1546 1545 1546 1544 1544 1544 1547 1548 1549 1552 1550 1551 1551 1552 1555 1555 1557 1557 1556 1560 1558 1556 1556 1559 1565 1553 1568 1541 1529 1533 1533 1530 1529 1529 1530
1521 1524 1525 1527 1529 1530 1532 1533 1535 1538 1563 1544 1545 1546 1545 1546 1547 1548 1550 1550 1553 1551 1553 1555 1554 1555 1557 1557 1554 1558 1557 1556 1554 1557 1561 1558 1570 1546 1531 1532 1533 1531 1528 1529 1530
1517 1521 1523 1525 1527 1530 1530 1533 1535 1554 1554 1546 1543 1545 1548 1547 1547 1548 1549 1553 1551 1555 1555 1554 1553 1554 1556 1556 1556 1556 1555 1556 1555 1561 1598 1560 1560 1552 1540 1533 1530 1529 1530 1529 1530
1513 1517 1520 1523 1526 1529 1531 1534 1553 1560 1541 1547 1543 1543 1545 1548 1549 1548 1549 1553 1555 1564 1559 1555 1556 1556 1557 1557 1557 1557 1565 1599 1593 1598 1588 1551 1555 1541 1535 1534 1533 1533 1533 1532 1533
1510 1514 1516 1520 1523 1526 1530 1538 1559 1543 1544 1538 1538 1542 1545 1546 1548 1549 1551 1555 1552 1554 1564 1564 1570 1559 1558 1558 1561 1560 1567 1596 1611 1596 1570 1551 1560 1541 1535 1535 1533 1531 1534 1537 1536
1505 1511 1513 1518 1521 1524 1530 1555 1539 1531 1529 1535 1540 1549 1549 1546 1549 1551 1553 1554 1553 1552 1564 1563 1559 1560 1558 1558 1561 1563 1573 1565 1591 1597 1592 1561 1546 1538 1534 1535 1533 1534 1536 1536 1536
1503 1507 1511 1515 1519 1523 1529 1530 1527 1524 1525 1530 1535 1543 1556 1555 1549 1552 1553 1552 1553 1554 1555 1559 1571 1561 1560 1560 1561 1563 1565 1584 1594 1613 1612 1567 1549 1547 1537 1535 1535 1535 1534 1535 1534
1502 1505 1508 1513 1518 1522 1529 1527 1522 1522 1523 1529 1534 1542 1542 1550 1548 1553 1551 1553 1551 1554 1554 1556 1565 1566 1562 1563 1564 1572 1578 1576 1576 1579 1598 1596 1549 1537 1538 1540 1539 1536 1534 1531 1529
1496 1502 1505 1510 1517 1517 1521 1515 1517 1521 1523 1525 1526 1531 1538 1544 1549 1549 1548 1548 1549 1551 1557 1558 1567 1579 1565 1561 1560 1563 1566 1570 1588 1580 1574 1575 1539 1536 1538 1539 1538 1538 1535 1530 1527
1487 1496 1502 1505 1511 1516 1513 1513 1515 1519 1521 1525 1527 1527 1534 1541 1549 1548 1549 1552 1551 1552 1556 1558 1576 1605 1578 1569 1564 1562 1563 1564 1578 1584 1573 1594 1551 1534 1536 1538 1540 1539 1536 1534 1532
1482 1496 1500 1503 1500 1500 1506 1510 1515 1516 1518 1520 1526 1527 1533 1544 1546 1552 1551 1553 1552 1554 1556 1557 1571 1578 1578 1561 1567 1564 1563 1565 1581 1606 1572 1558 1547 1539 1539 1542 1538 1536 1534 1531 1528
1467 1471 1472 1488 1494 1495 1496 1502 1509 1516 1516 1519 1524 1523 1526 1546 1551 1553 1552 1555 1555 1556 1558 1561 1575 1577 1571 1564 1564 1563 1561 1563 1573 1565 1576 1548 1555 1545 1543 1541 1536 1533 1530 1528 1525
1454 1459 1467 1472 1479 1491 1493 1499 1500 1508 1509 1515 1519 1520 1525 1533 1529 1543 1544 1550 1550 1558 1561 1563 1577 1575 1583 1565 1565 1565 1558 1556 1555 1555 1558 1552 1549 1542 1539 1536 1533 1530 1527 1525 1523
1447 1450 1454 1469 1476 1486 1482 1485 1490 1495 1506 1506 1509 1518 1525 1527 1527 1527 1533 1535 1541 1551 1563 1568 1577 1590 1587 1571 1574 1574 1552 1547 1551 1553 1554 1561 1547 1540 1538 1534 1531 1529 1528 1525 1524
Wind_Speed
4 4 4 4 4 4 4 5 6 6 5 4 4 5 7 6 5 5 8 7 6 5 7 9 11 9 8 6 6 3 4 2 3 4 2 10 6 8 11 8 12 7 13 14 16
4 4 4 3 3 3 4 5 5 5 4 4 4 6 6 6 8 10 8 7 5 4 4 7 7 8 5 5 4 4 3 3 3 3 3 7 11 13 6 11 10 13 13 16 17
4 5 4 3 2 3 3 4 4 3 3 4 4 5 6 4 5 7 7 5 5 6 8 9 9 7 6 4 4 6 3 2 7 6 6 8 10 14 11 4 1 5 11 17 17
4 4 4 4 3 2 2 3 3 3 4 4 3 4 5 2 1 3 4 4 4 5 8 8 5 2 2 3 4 3 4 3 3 5 4 5 9 13 10 8 1 3 6 10 14
2 2 2 2 2 2 2 2 3 3 4 3 4 6 4 5 5 3 3 2 2 5 6 7 8 4 3 4 3 1 5 6 6 8 7 9 8 8 19 19 9 6 8 8 11
2 1 1 1 1 1 2 2 3 2 2 3 4 4 4 4 3 3 2 2 2 4 3 3 4 4 3 3 3 3 7 13 10 9 5 4 7 5 4 5 6 5 6 5 9
2 1 1 1 0 0 1 2 2 2 2 4 5 5 5 5 5 3 3 3 3 2 3 4 5 3 2 2 3 4 4 7 8 9 3 4 6 5 13 8 5 3 5 6 9
2 2 1 1 1 0 0 1 1 2 3 5 6 2 5 4 4 3 4 4 4 4 3 4 4 4 2 2 3 2 3 5 5 8 2 5 7 5 2 5 6 5 3 5 7
3 2 1 1 2 1 1 1 2 3 3 5 4 4 3 3 1 3 2 3 5 5 5 5 3 3 3 3 4 5 1 2 5 0 2 2 7 7 7 12 12 7 0 3 5
5 4 3 2 2 1 2 2 2 3 5 5 7 3 4 1 1 3 4 4 5 6 5 5 3 3 4 5 2 1 3 5 4 3 3 6 11 7 20 20 21 7 2 5 7
7 5 4 3 3 3 4 5 3 3 3 4 4 7 5 4 3 3 4 6 5 3 3 4 5 2 3 3 2 1 1 3 5 8 5 5 8 11 20 22 11 9 6 9 9
9 8 7 5 5 5 5 2 2 4 6 5 6 7 6 4 2 4 3 3 2 2 2 5 2 1 0 3 4 3 3 6 7 4 7 10 16 17 18 16 12 11 11 7 5
11 9 8 6 6 6 6 3 3 6 3 2 5 4 4 4 3 2 2 1 2 1 3 3 1 3 3 3 4 3 3 4 5 6 5 8 7 6 4 15 17 12 9 7 7
14 12 10 8 6 7 5 6 7 6 4 1 1 1 4 6 3 1 2 2 1 2 2 2 2 2 3 2 1 2 4 4 6 6 2 6 5 6 6 5 6 6 7 5 2
15 13 13 13 6 10 5 8 8 4 3 3 2 3 4 3 7 3 4 2 2 1 4 2 3 3 2 2 2 2 3 4 3 2 4 5 2 7 3 2 3 8 10 7 1
17 15 15 14 9 7 9 10 9 6 5 2 3 3 3 1 2 4 3 2 2 3 1 2 3 2 1 2 2 3 3 5 1 2 3 5 3 5 3 4 3 7 11 8 4
19 18 17 16 11 11 13 11 5 4 4 3 4 4 2 3 2 2 3 1 3 4 2 1 0 2 2 2 3 5 5 4 6 4 5 3 3 7 4 4 5 7 10 10 6
19 20 20 17 13 16 17 5 4 3 5 3 4 4 4 3 2 2 3 1 3 4 1 3 5 1 0 2 3 1 5 4 4 3 7 2 5 4 0 5 7 4 11 8 7
19 19 19 18 16 20 12 3 8 7 7 8 4 5 1 2 3 3 3 2 2 2 6 3 1 2 3 2 3 2 1 2 3 0 3 4 5 5 4 3 3 2 6 7 6
22 18 17 19 19 21 3 5 4 3 7 2 4 3 6 4 4 5 5 1 4 2 2 2 1 1 1 2 2 3 1 3 3 2 5 5 9 5 4 6 6 6 9 9 10
22 11 15 20 21 12 4 6 3 4 5 5 4 4 3 6 7 4 6 1 3 3 4 3 3 2 1 3 5 3 2 1 2 3 4 3 7 1 6 6 7 14 16 16 14
22 4 19 25 7 4 4 6 6 4 3 2 3 4 5 4 4 5 7 1 5 8 6 0 4 2 6 1 4 3 5 5 4 5 4 3 18 9 5 6 16 20 20 20 16
22 8 23 29 5 4 1 3 4 5 4 5 3 3 2 5 3 2 4 3 5 3 5 4 1 3 8 5 4 2 4 3 3 2 7 3 10 7 22 17 21 22 30 30 22
16 3 7 15 5 6 6 4 5 3 5 5 5 5 4 3 4 4 3 2 3 4 4 4 3 6 6 6 3 3 1 2 5 2 7 13 19 20 19 10 22 27 20 25 28
17 7 14 7 9 3 7 9 7 7 3 8 2 4 7 4 3 3 2 2 4 3 3 4 5 3 5 5 2 5 8 7 8 11 5 20 13 18 16 12 23 25 23 22 22
17 8 10 8 22 11 9 9 11 5 8 5 4 9 5 7 8 9 8 4 5 2 2 3 2 3 4 5 1 4 9 12 12 9 8 13 13 10 19 26 24 27 21 20 14
23 16 23 13 10 11 7 8 11 15 5 5 12 6 6 6 9 11 8 12 14 8 4 4 4 3 6 4 3 7 6 5 5 5 6 2 7 10 12 22 27 24 19 18 16
Wind_Direction
7 8 6 31 31 40 60 61 51 41 36 37 49 73 89 101 99 97 59 56 51 61 79 68 57 75 65 35 36 11 61 20 17 55 336 19 21 354 344 345 331 49 39 7 344
7 5 8 37 48 62 61 55 50 44 51 49 65 91 112 107 78 74 65 57 62 69 84 85 77 63 73 42 17 53 85 57 7 61 1 6 8 343 350 336 333 334 321 333 344
7 11 4 11 34 55 75 73 63 64 56 64 74 102 120 111 74 40 55 59 65 67 73 74 78 59 73 33 31 350 99 29 46 56 21 344 329 334 347 328 10 11 335 329 336
12 7 351 350 5 32 77 66 61 54 62 71 93 119 132 134 122 61 58 63 72 87 87 72 45 39 76 79 49 40 15 76 348 34 2 316 312 316 291 285 266 5 349 342 329
3 15 344 348 353 20 38 42 51 48 69 91 127 139 127 77 91 92 77 77 67 76 72 90 67 39 54 67 26 45 354 348 331 300 282 278 279 278 281 282 273 317 329 334 328
315 345 338 335 3 20 30 25 38 55 85 113 133 145 135 81 98 82 65 48 62 67 68 96 85 77 63 71 77 302 319 296 288 266 270 278 283 325 247 237 277 335 330 334 340
261 279 293 287 267 44 7 16 22 81 108 119 132 134 87 112 92 66 71 65 78 94 45 89 101 69 75 68 350 304 327 319 260 227 216 349 324 235 283 252 299 344 328 327 337
257 258 233 234 272 299 124 107 119 118 128 136 141 135 88 114 110 113 81 48 74 78 67 75 101 85 53 336 315 319 31 358 329 125 118 86 277 317 243 291 288 273 311 347 347
243 249 252 227 214 207 212 154 143 128 129 137 128 108 68 120 79 96 109 67 50 64 81 86 85 76 34 52 17 9 313 275 328 166 141 171 271 281 285 292 277 267 285 36 351
229 217 216 219 225 198 168 153 148 134 120 124 112 99 122 169 80 73 93 96 83 78 63 51 46 55 23 59 198 353 3 337 318 315 273 253 269 276 290 300 276 241 174 88 27
221 210 208 211 205 192 177 147 131 76 74 73 79 101 139 115 89 63 86 79 70 45 67 34 64 57 68 85 93 60 19 265 262 278 308 252 277 289 287 293 244 221 117 78 48
213 205 203 198 198 201 195 193 201 143 103 92 116 123 147 129 87 52 91 35 34 68 65 26 90 318 103 73 64 27 320 302 297 336 349 306 298 281 287 281 253 143 95 65 10
214 209 201 198 200 200 207 193 178 149 77 72 124 126 138 135 71 88 86 61 53 44 144 137 355 82 62 8 22 321 289 312 273 333 325 331 319 341 353 75 85 84 80 62 19
211 203 200 193 201 199 205 192 174 161 74 187 206 40 141 133 81 141 134 54 54 108 54 126 86 59 22 321 153 313 345 352 352 22 300 56 288 314 303 87 95 118 136 134 348
212 204 197 189 191 182 179 169 165 155 13 139 138 151 152 115 131 40 124 93 49 43 86 188 108 76 30 347 46 212 322 288 255 298 9 321 52 275 340 28 202 198 167 155 190
211 203 200 198 196 185 165 156 141 47 262 136 124 144 108 102 82 107 84 46 64 33 12 223 126 113 41 37 28 332 335 320 63 82 32 259 146 280 286 276 283 203 181 174 181
213 200 199 198 194 179 162 151 48 140 353 242 169 152 179 157 122 165 138 163 137 82 358 97 120 96 42 54 13 45 43 343 358 4 228 211 348 245 237 293 323 241 193 179 175
206 200 199 197 184 174 163 59 117 217 207 199 127 127 150 137 103 143 114 290 230 95 78 133 329 14 312 80 167 201 133 149 235 276 279 256 247 266 187 341 353 311 202 182 176
196 193 194 191 184 173 170 91 204 201 157 146 68 101 228 113 124 118 207 173 77 104 156 149 230 334 48 358 86 306 97 189 109 334 22 258 310 319 328 347 348 134 180 197 222
193 182 189 186 177 172 108 231 200 157 125 131 143 143 163 202 141 159 198 235 147 76 112 178 58 260 305 340 9 108 267 34 3 346 297 289 307 256 326 304 294 278 246 244 252
182 165 186 176 168 175 173 214 181 157 150 146 175 127 143 167 164 189 189 322 129 137 81 125 117 285 57 206 175 33 25 10 179 171 205 268 273 198 25 28 347 317 279 254 245
171 149 171 165 155 185 166 176 150 153 131 134 109 111 145 155 139 191 196 110 156 145 144 108 138 175 228 48 89 109 164 157 145 256 229 216 275 295 62 5 354 333 321 289 257
157 122 167 175 168 212 206 131 149 138 177 161 117 108 114 151 104 153 107 30 105 116 149 185 289 30 344 357 6 148 203 198 107 77 245 217 271 279 324 338 343 340 329 326 320
154 123 165 207 225 158 146 171 150 145 148 137 124 102 102 73 28 159 123 44 96 94 105 129 99 158 193 211 124 205 270 290 133 132 270 259 283 297 311 322 317 322 331 330 316
172 192 171 181 216 185 154 158 143 165 158 153 82 197 153 122 65 150 94 91 46 125 69 112 184 159 264 262 192 220 253 251 206 236 208 276 286 289 294 295 309 309 317 326 319
172 154 153 153 164 157 188 203 166 167 149 200 172 185 146 153 182 188 138 176 182 101 106 14 226 84 299 304 100 259 249 248 253 258 259 265 272 272 302 315 316 314 313 327 325
195 175 163 154 142 174 201 170 176 135 195 196 174 126 155 171 127 130 125 144 150 141 141 123 123 81 269 331 322 316 233 198 216 206 180 238 252 329 332 334 339 339 325 326 329